Date,TemperatureHighF,TemperatureAvgF,TemperatureLowF,DewpointHighF,DewpointAvgF,DewpointLowF,HumidityHigh,HumidityAvg,HumidityLow,PressureMaxIn,PressureMinIn,WindSpeedMaxMPH,WindSpeedAvgMPH,GustSpeedMaxMPH,PrecipitationSumIn
2013-2-13,50,48,47,44,44,43,87,84,81,29.82,29.79,4,1,5,0.02
2013-2-14,57,51,45,44,39,37,88,63,51,29.97,29.82,6,2,10,0.00
2013-2-15,56,49,43,47,42,37,92,77,62,30.00,29.97,5,1,5,0.04
2013-2-16,55,52,47,46,41,38,92,68,56,30.06,29.97,8,2,10,0.03
2013-2-17,57,51,43,44,40,35,77,67,52,30.06,29.97,10,1,14,0.00
2013-2-18,54,49,44,44,42,39,84,76,62,30.00,29.94,14,2,16,0.02
2013-4-5,61,60,58,58,57,56,94,91,88,29.79,29.79,0,0,1,0.00
2013-4-6,68,63,56,61,56,48,98,78,60,29.82,29.70,9,1,12,0.00
2013-4-8,58,58,58,52,52,52,80,80,80,29.88,29.88,0,0,2,0.00
2013-4-9,68,62,59,58,56,54,90,79,65,29.97,29.85,3,1,5,0.00
2013-4-10,66,63,59,59,57,54,90,83,76,30.03,29.94,4,1,7,0.00
2013-4-11,68,63,56,59,57,54,95,81,67,30.09,30.03,3,1,6,0.00
2013-4-12,67,64,62,58,57,55,86,78,71,30.06,30.00,4,1,8,0.00
2013-4-13,69,64,60,63,59,58,94,84,75,30.26,30.09,2,0,4,0.00
2013-4-14,71,61,58,58,56,49,96,86,59,30.29,30.23,7,1,7,0.00
2013-4-15,75,68,60,47,40,29,52,37,21,30.23,30.12,11,1,13,0.00
2013-4-16,70,66,57,59,56,47,89,71,49,30.17,30.12,3,0,4,0.00
2013-4-17,73,67,57,52,42,26,56,41,19,30.20,30.15,11,2,13,0.00
2013-4-18,73,66,57,57,49,30,85,55,22,30.15,30.06,6,0,12,0.00
2013-4-19,71,66,60,63,60,58,94,82,70,30.03,29.97,2,0,5,0.00
2013-4-20,69,66,61,63,60,55,92,81,72,30.03,29.97,4,1,6,0.00
2013-4-21,67,62,58,53,50,47,75,65,53,30.06,29.97,6,1,8,0.00
2013-4-22,64,58,50,54,50,47,93,74,63,30.06,29.94,7,1,11,0.18
2013-4-23,68,65,55,55,51,44,77,62,44,30.23,30.06,5,1,5,0.00
2013-4-24,78,72,63,54,51,47,60,48,37,30.29,30.23,6,3,10,0.00
2013-4-25,81,74,64,56,47,28,63,41,15,30.23,30.09,4,1,5,0.00
2013-4-26,80,68,52,57,53,29,86,61,30,30.09,29.97,7,2,11,0.24
2013-4-27,64,63,62,58,56,55,86,78,74,29.88,29.85,4,2,8,0.00
2013-4-28,78,72,61,65,53,40,94,55,27,29.97,29.88,4,0,4,0.00
2013-4-29,81,71,66,55,50,33,67,50,18,30.00,30.00,7,1,11,0.00
2013-4-30,82,75,67,58,50,38,65,43,25,30.09,30.00,5,1,8,0.00
2013-5-2,79,73,65,62,59,52,82,63,49,30.00,29.88,8,1,12,0.02
2013-5-3,78,72,63,66,61,54,93,69,50,29.94,29.88,4,0,6,0.00
2013-5-4,82,75,64,65,60,56,82,61,43,30.00,29.88,6,0,8,0.00
2013-5-5,81,74,66,65,60,57,79,62,45,29.97,29.88,9,2,12,0.03
2013-5-6,73,69,64,66,61,56,86,77,67,30.03,29.88,6,1,11,0.02
2013-5-7,72,68,60,64,60,57,94,78,68,30.03,29.97,4,1,6,0.02
2013-5-8,74,70,64,63,61,60,92,76,67,29.97,29.91,4,0,5,0.00
2013-5-9,77,72,64,66,62,58,93,72,59,30.00,29.94,7,1,12,0.00
2013-5-10,77,72,64,70,64,60,97,76,61,30.00,29.94,3,0,5,0.00
2013-5-11,75,70,64,66,60,54,92,73,63,29.91,29.88,4,1,9,0.00
2013-5-12,74,69,64,60,58,55,79,67,56,29.88,29.85,5,1,11,0.00
2013-5-13,74,69,62,63,58,49,88,68,53,29.97,29.88,10,2,13,0.00
2013-5-14,75,70,60,57,51,40,77,53,31,30.00,29.91,6,1,8,0.00
2013-5-15,74,69,61,62,57,52,87,67,49,29.85,29.70,2,0,5,0.00
2013-5-16,81,72,68,65,59,53,87,65,46,29.64,29.50,12,3,17,0.00
2013-5-17,72,68,64,66,60,55,90,74,63,29.94,29.64,4,1,6,0.00
2013-5-18,82,75,60,59,51,39,87,47,27,30.00,29.85,4,0,8,0.00
2013-5-19,71,67,62,64,55,50,87,67,55,30.09,29.85,13,2,20,0.00
2013-5-20,72,68,59,61,57,51,86,68,59,30.12,30.09,3,1,6,0.00
2013-5-21,77,69,60,58,53,42,84,58,33,30.03,29.79,12,2,15,0.02
2013-5-22,81,72,62,63,59,54,94,64,45,29.67,29.32,10,4,14,0.77
2013-5-23,70,66,63,63,58,55,93,76,64,29.70,29.44,11,2,16,0.00
2013-5-24,69,65,63,56,54,49,76,66,52,29.91,29.73,4,1,8,0.00
2013-5-25,66,62,55,56,51,48,91,68,56,29.94,29.88,10,1,12,0.00
2013-5-28,67,65,63,52,50,47,65,59,48,29.70,29.64,7,1,11,0.00
2013-5-29,72,67,61,62,58,50,85,72,62,29.76,29.70,10,1,11,0.00
2013-5-30,68,62,56,56,52,48,87,69,56,29.79,29.73,9,1,9,0.31
2013-5-31,67,64,56,58,55,52,92,75,64,29.82,29.73,5,1,10,0.03
2013-6-1,76,64,57,66,57,51,84,77,69,29.79,29.73,4,1,8,0.06
2013-6-2,78,68,55,67,60,50,86,75,69,29.97,29.79,2,0,3,0.00
2013-6-3,78,70,61,67,61,55,85,74,66,29.94,29.88,6,1,10,0.00
2013-6-4,79,71,61,68,62,53,80,73,66,30.00,29.94,8,0,10,0.00
2013-6-5,80,71,60,69,62,54,83,73,67,30.06,30.00,4,1,6,0.00
2013-6-6,83,74,61,71,64,56,85,73,67,30.09,30.00,7,1,8,0.00
2013-6-7,87,77,66,74,66,58,77,69,59,30.00,29.94,14,2,16,0.00
2013-6-8,84,74,66,73,66,60,81,74,67,30.00,29.94,5,0,7,0.00
2013-6-9,84,75,66,73,66,59,84,73,66,29.97,29.85,3,0,5,0.00
2013-6-10,83,74,66,72,64,58,82,73,69,29.91,29.85,5,1,6,0.00
2013-6-11,85,74,63,72,64,57,81,72,63,29.94,29.88,11,2,17,0.00
2013-6-12,74,68,63,63,60,58,83,78,68,29.97,29.94,2,0,4,0.00
2013-6-13,86,78,67,71,65,57,72,65,59,30.00,29.97,9,2,11,0.00
2013-6-14,91,77,69,74,67,59,77,71,58,30.06,30.00,2,0,4,0.00
2013-6-15,87,77,70,74,67,61,81,71,64,30.09,30.03,3,0,4,0.00
2013-6-16,88,80,67,76,69,60,80,70,62,30.09,30.03,4,0,5,0.00
2013-6-17,90,82,69,77,71,63,80,71,63,30.06,29.97,2,0,3,0.00
2013-6-18,95,84,74,82,73,66,77,70,63,30.00,29.97,6,1,9,0.00
2013-6-19,94,86,76,81,74,64,70,66,61,30.03,29.97,6,1,9,0.00
2013-6-20,94,84,75,82,73,64,72,69,62,30.03,29.97,6,1,8,0.00
2013-6-21,93,84,72,81,73,62,74,69,62,30.03,30.00,8,1,12,0.00
2013-6-22,72,72,72,64,64,64,75,75,75,30.00,30.00,0,0,0,0.00
2013-6-23,92,82,69,79,71,62,79,71,67,30.00,29.97,4,1,4,0.00
2013-6-24,90,78,69,76,67,60,76,69,61,29.97,29.91,6,1,12,0.00
2013-6-25,90,78,69,75,67,59,76,69,59,30.03,29.94,3,0,5,0.00
2013-6-26,87,77,66,74,67,58,80,70,60,30.06,30.00,7,1,12,0.00
2013-6-27,86,77,67,73,65,56,76,68,61,30.09,30.03,10,1,12,0.00
2013-6-28,83,75,65,71,65,58,79,71,66,30.06,29.97,4,1,6,0.00
2013-7-27,77,77,77,69,69,69,78,78,78,29.94,29.94,1,0,1,0.00
2013-9-20,80,74,70,66,66,64,86,75,60,30.03,29.94,1,0,2,0.07
2013-9-21,82,76,68,73,67,59,92,75,58,30.12,30.03,8,1,10,0.00
2013-9-22,78,73,67,58,47,37,59,41,28,30.17,30.12,8,4,15,0.00
2013-9-23,76,71,65,59,53,48,76,55,41,30.15,30.06,7,2,12,0.00
2013-9-24,78,72,64,67,63,60,89,74,59,30.09,30.03,6,1,8,0.00
2013-9-25,79,73,67,70,65,62,95,76,63,30.06,30.00,4,0,5,0.00
2013-9-26,77,74,67,70,68,64,94,82,71,30.03,29.97,3,0,4,0.00
2013-9-27,80,77,68,74,72,63,94,85,75,30.00,29.97,2,0,4,0.00
2013-9-28,87,76,67,76,68,62,85,75,70,29.97,29.91,3,0,3,0.00
2013-9-29,84,76,68,74,68,63,85,76,70,29.88,29.73,4,0,5,0.00
2013-9-30,87,75,67,76,66,61,83,75,70,29.64,29.58,7,1,12,0.02
2013-10-1,85,74,67,74,66,60,85,75,61,29.79,29.64,7,1,11,0.00
2013-10-2,79,72,67,64,58,50,87,61,50,30.06,29.82,7,2,12,0.00
2013-10-3,74,68,63,48,44,39,58,43,30,30.23,30.12,7,3,12,0.00
2013-10-5,69,67,62,68,62,54,99,86,60,30.26,30.06,15,1,20,1.60
2013-10-6,77,72,67,73,69,66,99,89,80,30.06,29.97,11,2,13,2.64
2013-10-7,79,73,68,73,69,67,99,87,73,30.12,30.03,3,0,7,0.12
2013-10-8,75,71,68,71,65,59,99,83,72,30.15,30.09,9,2,12,0.02
2013-10-9,74,71,67,69,65,62,92,82,74,30.12,30.03,4,1,7,0.04
2013-10-10,75,71,65,71,66,63,97,85,73,30.00,29.85,7,1,9,0.00
2013-10-11,77,75,71,73,71,68,98,88,81,30.06,29.85,4,1,6,0.02
2013-10-12,77,73,71,71,69,66,98,86,78,30.12,30.06,7,1,11,0.55
2013-10-13,81,75,68,74,67,61,93,77,57,30.12,30.09,10,2,13,0.00
2013-10-14,79,73,65,68,65,61,89,76,64,30.15,30.06,3,0,6,0.00
2013-10-15,78,72,66,72,68,63,94,87,78,30.09,29.97,3,0,4,0.00
2013-10-16,78,72,66,72,66,54,94,81,66,29.97,29.67,12,2,18,0.00
2013-10-17,81,68,60,68,56,46,77,65,39,30.00,29.88,7,2,11,0.00
2013-10-18,84,70,58,72,60,50,79,72,60,30.09,30.00,4,0,6,0.00
2013-10-19,85,70,60,73,62,54,82,75,66,30.26,30.12,3,0,3,0.00
2013-10-20,76,71,66,67,64,61,83,78,73,30.29,30.23,3,0,4,0.00
2013-10-21,86,73,64,74,65,58,83,76,69,30.26,30.20,4,0,5,0.00
2013-10-22,66,59,59,60,56,56,90,90,82,30.23,29.85,2,1,2,0.00
2013-10-23,59,59,59,56,56,56,90,90,90,29.85,29.85,1,1,1,0.00
2013-10-26,59,59,59,56,56,56,90,90,90,29.85,29.85,1,1,1,0.00
2013-10-27,59,59,59,56,56,56,90,90,90,29.85,29.85,1,1,1,0.00
2013-10-28,59,59,59,56,56,56,90,90,90,29.85,29.85,1,1,1,0.00
2013-10-29,59,59,59,56,56,56,90,90,90,29.85,29.85,1,1,1,0.00
2013-10-30,59,59,59,56,56,56,90,90,90,29.85,29.85,1,1,1,0.00
2013-10-31,59,59,59,56,56,56,90,90,90,29.85,29.85,1,1,1,0.00
2013-11-2,62,62,62,57,57,57,84,84,84,30.12,30.12,0,0,0,0.00
2013-11-3,82,72,67,72,64,60,80,75,72,30.09,29.97,3,0,4,0.00
2013-11-4,79,74,69,69,65,61,78,73,69,29.91,29.82,4,2,8,0.00
2013-11-5,68,67,67,59,58,57,71,71,70,29.44,29.41,7,2,13,0.00
2013-11-6,80,66,56,69,58,49,82,75,69,29.88,29.58,7,2,10,0.00
2013-11-7,60,58,58,55,53,53,84,84,82,30.00,29.97,2,1,4,4.32
2013-11-8,63,63,63,58,58,58,86,86,86,30.09,30.09,0,0,1,0.80
2013-11-9,79,70,62,69,62,58,85,78,72,30.06,29.97,4,1,7,0.00
2013-11-10,79,67,54,68,59,48,82,74,69,29.97,29.58,11,2,13,0.04
2013-11-11,55,54,52,49,49,46,82,82,81,29.38,29.35,3,1,6,0.23
2013-11-12,71,64,59,60,56,52,78,75,70,29.91,29.73,6,2,10,0.00
2013-11-13,64,64,63,56,56,55,77,76,76,29.88,29.85,8,6,12,0.00
2013-11-14,70,65,51,60,56,42,78,74,70,29.97,29.88,6,2,12,0.00
2013-11-15,66,62,58,58,55,52,81,78,76,29.88,29.85,2,0,4,0.00
2013-11-16,63,60,56,55,53,49,81,77,74,30.09,30.00,6,4,14,0.22
2013-11-17,76,65,60,66,57,53,79,75,69,30.15,30.09,3,0,4,0.00
2013-11-18,69,66,58,60,58,52,81,74,71,30.00,29.76,13,4,22,0.00
2013-11-19,71,63,54,62,55,49,85,76,72,29.67,29.58,8,3,17,0.11
2013-11-20,70,64,59,61,56,52,81,76,68,29.70,29.58,9,2,12,0.00
2013-11-21,68,58,50,58,50,46,84,76,70,29.73,29.58,6,1,8,0.05
2013-11-22,64,56,52,54,50,46,90,82,72,29.55,29.41,7,2,10,1.38
2013-11-23,63,59,54,48,45,40,73,60,48,29.58,29.50,9,2,12,0.28
2013-11-24,58,54,51,47,45,43,83,71,64,29.67,29.55,4,1,8,0.34
2013-11-25,62,53,41,45,40,33,84,61,46,29.85,29.73,11,4,16,0.72
2013-11-26,50,47,42,30,28,24,60,49,39,29.97,29.82,16,6,22,0.00
2013-11-27,51,49,44,35,31,28,59,51,44,30.23,30.00,7,3,11,0.00
2013-11-28,53,50,48,44,42,38,83,74,64,30.29,30.20,6,3,9,0.25
2013-11-29,61,56,50,44,42,40,70,60,52,30.20,30.09,4,2,8,0.00
2013-11-30,61,57,51,48,46,41,74,66,60,30.06,29.76,10,3,14,0.02
2013-12-1,62,59,57,49,47,45,70,65,60,29.67,29.58,13,9,25,0.04
2013-12-2,63,60,58,57,54,52,85,81,69,30.09,29.79,8,2,15,1.60
2013-12-3,63,58,55,44,41,38,64,52,44,30.20,30.09,10,5,14,0.06
2013-12-4,64,57,49,46,40,37,77,55,40,30.23,30.17,7,2,9,0.00
2013-12-5,63,57,51,50,47,45,80,71,60,30.20,30.12,6,2,9,0.00
2013-12-6,60,58,55,47,45,42,72,63,56,30.06,29.94,5,2,9,0.00
2013-12-7,64,58,50,45,41,38,67,53,40,30.32,30.03,5,2,12,0.00
2013-12-8,66,61,52,51,48,41,76,61,54,30.41,30.32,5,1,5,0.05
2013-12-9,67,61,56,56,52,49,84,71,59,30.44,30.38,4,1,9,0.07
2013-12-10,66,60,53,53,44,41,83,57,43,30.50,30.41,7,3,13,0.00
2013-12-11,66,60,53,46,44,42,67,55,46,30.53,30.47,6,1,8,0.00
2013-12-12,66,58,51,51,46,42,79,67,55,30.47,30.35,5,1,8,0.00
2013-12-13,61,57,51,51,47,44,83,68,56,30.29,30.23,6,1,9,0.00
2013-12-14,63,57,49,50,47,44,83,70,56,30.41,30.29,8,1,11,0.00
2013-12-15,61,57,54,54,48,41,83,73,59,30.47,30.38,6,1,9,0.00
2013-12-18,65,56,48,46,43,37,79,62,44,30.35,30.26,4,2,5,0.00
2013-12-19,51,51,51,45,45,45,78,78,78,30.23,30.23,0,0,1,0.00
2013-12-20,64,60,55,51,48,45,80,66,55,30.47,30.23,5,1,8,0.00
2013-12-21,65,59,53,51,45,40,78,59,50,30.59,30.50,4,0,5,0.00
2013-12-22,64,57,49,48,44,40,71,61,50,30.53,30.41,4,1,5,0.00
2013-12-23,61,55,49,50,45,41,83,70,59,30.35,30.26,4,1,5,0.00
2013-12-24,64,56,49,49,44,41,76,64,52,30.20,30.15,4,1,5,0.00
2013-12-25,62,60,55,52,50,48,78,70,66,30.06,29.79,7,3,13,0.00
2013-12-26,62,57,52,56,50,45,87,78,69,29.58,29.41,11,4,16,0.54
2013-12-27,60,55,49,50,48,44,86,77,67,29.91,29.58,4,0,8,0.11
2013-12-28,64,58,50,50,47,44,82,69,56,30.09,29.97,3,0,4,0.00
2013-12-29,53,53,53,48,48,48,82,82,82,30.06,30.06,2,2,2,0.00
2013-12-30,64,60,56,54,52,50,82,74,67,30.12,30.06,4,0,5,0.07
2013-12-31,63,58,54,48,46,44,70,64,55,30.09,30.00,7,3,12,0.00
2014-1-1,62,57,52,50,47,44,77,71,62,30.12,30.03,9,2,13,0.00
2014-1-2,63,59,51,55,50,46,83,73,62,30.15,30.09,4,1,6,0.00